[[{"header":{"parameterUnit":"m.s-1","parameterCategory":1,"la1":30.2992,"la2":30.254,"lo1":-89.0895,"lo2":-89.0443,"dy":0.0025,"dx":0.0025,"nx":19,"ny":19,"refTime":"2026-05-10T09:00:00:Z","depth":0,"parameterNumber":2,"parameterNumberName":"U-component_of_WINDS"},"data":[0,0,0,-2.1594,-2.1594,-2.1551,-2.1551,-2.1528,-2.1528,0,0,0,0,0,0,0,0,0,0,0,-2.1624,-2.1625,-2.1594,-2.1594,-2.1551,-2.1551,-2.1528,-2.1528,0,0,0,0,0,0,0,0,0,0,0,-2.1624,-2.1624,-2.1625,-2.1594,-2.1551,-2.1551,-2.1528,-2.1549,0,0,0,0,0,0,0,0,0,0,-2.1585,-2.1629,-2.1624,-2.1625,-2.1594,-2.1551,-2.1551,-2.155,-2.1548,-2.1561,0,-2.1575,0,-2.1551,-2.1529,-2.1529,0,0,0,-2.1581,-2.1631,-2.1604,-2.1625,-2.1593,-2.1552,-2.1567,-2.1549,-2.1547,-2.1558,-2.1574,-2.1572,-2.1551,-2.1529,-2.1529,-2.1641,-2.1642,0,0,-2.1583,-2.1626,-2.1606,-2.1604,-2.161,-2.1568,-2.1566,-2.1547,-2.1567,-2.1574,-2.1571,-2.1551,-2.1529,-2.1529,-2.164,-2.1641,0,0,0,-2.1599,-2.1628,-2.1601,-2.1605,-2.1595,-2.1567,-2.1564,-2.1568,-2.1556,-2.1571,-2.155,-2.1529,-2.1529,-2.1639,-2.164,-2.1739,0,0,0,-2.1599,-2.1637,-2.1603,-2.1628,-2.1596,-2.1581,-2.1587,-2.1557,-2.1553,-2.155,-2.1529,-2.1529,-2.1637,-2.164,-2.1733,-2.1779,0,0,0,-2.1621,-2.1639,-2.1639,-2.1631,-2.1614,-2.158,-2.1566,-2.1555,-2.1542,-2.1529,-2.1529,-2.1636,-2.1639,-2.1728,-2.177,-2.1823,0,0,0,-2.1657,-2.1726,-2.1641,-2.1711,-2.1615,-2.164,-2.1565,-2.1582,-2.1583,-2.1529,-2.1637,-2.164,-2.1727,-2.1765,-2.1818,-2.1876,-2.1904,0,0,-2.1768,-2.1741,-2.1778,-2.1701,-2.1753,-2.1643,-2.171,-2.167,-2.1629,-2.164,-2.1642,-2.1735,-2.177,-2.1822,-2.204,-2.2062,0,0,0,-2.1828,-2.1856,-2.186,-2.1863,-2.1834,-2.1814,-2.1759,-2.1745,-2.1751,-2.1643,-2.1765,-2.1785,-2.1814,-2.184,-2.1859,-2.1882,-2.1653,-2.1653,-2.1653,-2.2048,-2.1993,-2.2052,-2.1993,-2.1997,-2.1941,-2.1939,-2.1911,-2.1853,-2.1884,-2.1887,-2.2026,-2.2058,-2.2072,-2.2097,-2.1911,-2.1911,-2.1912,-2.1912,-2.2208,-2.224,-2.2164,-2.2194,-2.2137,-2.2162,-2.2112,-2.2071,-2.2088,-2.2018,-2.204,-2.1971,-2.2098,-2.2117,-2.1919,-2.1918,-2.1917,-2.1916,-2.1916,-2.2348,-2.2354,-2.2335,-2.2335,-2.2341,-2.2279,-2.2299,-2.2245,-2.2195,-2.2217,-2.2217,-2.2215,-2.2209,-2.222,-2.2221,-2.2221,-2.2222,-2.2222,-2.2222,-2.2502,-2.2477,-2.2501,-2.2477,-2.2473,-2.2461,-2.2407,-2.2402,-2.2383,-2.2342,-2.2342,-2.2285,-2.2119,-2.2081,-2.223,-2.2228,-2.2227,-2.2227,-2.2226,-2.2689,-2.2638,-2.2675,-2.2671,-2.2641,-2.2653,-2.2583,-2.2579,-2.2567,-2.258,-2.2517,-2.2402,-2.2371,-2.2355,-2.2323,-2.2526,-2.2526,-2.2526,-2.2526,-2.281,-2.2788,-2.2814,-2.2813,-2.2804,-2.2746,-2.2792,-2.2752,-2.2702,-2.2692,-2.2655,-2.2606,-2.2593,-2.257,-2.255,-2.2519,-2.2767,-2.2767,-2.2767,-2.2923,-2.2899,-2.2948,-2.2897,-2.287,-2.2849,-2.2892,-2.2895,-2.2828,-2.2776,-2.2684,-2.2674,-2.2596,-2.2572,-2.2521,-2.2491,-2.2433,0,0]},{"header":{"parameterUnit":"m.s-1","parameterCategory":1,"la1":30.2992,"la2":30.254,"lo1":-89.0895,"lo2":-89.0443,"dy":0.0025,"dx":0.0025,"nx":19,"ny":19,"refTime":"2026-05-10T09:00:00:Z","depth":0,"parameterNumber":3,"parameterNumberName":"V-component_of_WINDS"},"data":[0,0,0,0.8735,0.8736,0.8817,0.8818,0.8904,0.8905,0,0,0,0,0,0,0,0,0,0,0,0.8701,0.8701,0.8735,0.8736,0.8817,0.8818,0.8904,0.8905,0,0,0,0,0,0,0,0,0,0,0,0.8701,0.8701,0.8702,0.8737,0.8817,0.8818,0.8904,0.8849,0,0,0,0,0,0,0,0,0,0,0.8773,0.8732,0.8701,0.8702,0.8737,0.8817,0.8818,0.8846,0.8852,0.886,0,0.8866,0,0.8886,0.8909,0.891,0,0,0,0.8743,0.8727,0.8758,0.8702,0.8738,0.8817,0.8783,0.885,0.8856,0.8868,0.8867,0.8871,0.8888,0.891,0.891,0.8935,0.8935,0,0,0.8739,0.871,0.8754,0.8762,0.8749,0.878,0.8785,0.8854,0.8851,0.8867,0.8873,0.8889,0.891,0.8911,0.8935,0.8935,0,0,0,0.8721,0.8707,0.8736,0.8758,0.8774,0.8782,0.8788,0.8848,0.886,0.8874,0.889,0.8911,0.8912,0.8936,0.8935,0.8896,0,0,0,0.8719,0.8697,0.8734,0.8717,0.8772,0.8812,0.878,0.8855,0.8864,0.889,0.8911,0.8912,0.8936,0.8935,0.8898,0.8882,0,0,0,0.8699,0.8694,0.8703,0.8715,0.8749,0.8812,0.8828,0.8858,0.8873,0.891,0.8912,0.8936,0.8935,0.8899,0.8884,0.8879,0,0,0,0.8669,0.8667,0.8702,0.8706,0.8748,0.8788,0.8828,0.8858,0.8885,0.8911,0.8936,0.8935,0.89,0.8886,0.888,0.8867,0.886,0,0,0.865,0.8664,0.8669,0.8702,0.8727,0.8777,0.8797,0.8849,0.8878,0.8914,0.8915,0.8897,0.8884,0.8879,0.8832,0.8826,0,0,0,0.8653,0.8655,0.8668,0.8693,0.8733,0.8765,0.8817,0.8836,0.8868,0.8891,0.8896,0.8889,0.8887,0.8882,0.8877,0.8876,0.8932,0.8932,0.8932,0.8583,0.8622,0.8632,0.868,0.8703,0.8757,0.8778,0.8813,0.8845,0.8845,0.8856,0.8823,0.8816,0.8812,0.8811,0.8854,0.8854,0.8854,0.8854,0.8558,0.8567,0.861,0.8635,0.8675,0.8697,0.8748,0.877,0.8795,0.8818,0.8818,0.8839,0.8804,0.8805,0.8851,0.8851,0.8852,0.8852,0.8852,0.8515,0.8526,0.855,0.8589,0.8614,0.8664,0.8685,0.8722,0.8757,0.8757,0.8771,0.8771,0.8775,0.8761,0.8761,0.8761,0.8761,0.8761,0.8761,0.846,0.8489,0.8503,0.8545,0.8565,0.8596,0.865,0.8671,0.8703,0.8728,0.8728,0.8758,0.8795,0.8802,0.8759,0.8759,0.876,0.876,0.876,0.8416,0.8432,0.8453,0.8474,0.8526,0.8548,0.8596,0.8634,0.8657,0.8666,0.8698,0.8719,0.8735,0.8739,0.8745,0.8691,0.8691,0.8691,0.8691,0.8378,0.8391,0.842,0.845,0.8484,0.8529,0.855,0.8592,0.8638,0.8654,0.8668,0.868,0.8683,0.8697,0.8702,0.8708,0.8645,0.8645,0.8645,0.8352,0.837,0.8381,0.8427,0.8471,0.8507,0.8528,0.856,0.8616,0.8644,0.8667,0.8669,0.8689,0.8693,0.872,0.8727,0.8739,0,0]}]]